Regional Weather Roundup
Issued by NWS

Home | Current Version | Previous Version | Graphics & Text | Print | Product List | Glossary On
Versions: 1 2 3 4 5 6 7 8 9 10 11 12 13 14 15 16 17 18 19 20 21 22 23 24 25 26 27 28 29 30 31 32 33 34 35 36 37 38 39 40 41 42 43 44 45 46 47 48 49 50
000
ASUS43 KDMX 241901
RWRIA

WEATHER ROUNDUP FOR IOWA
NATIONAL WEATHER SERVICE DES MOINES IA
200 PM CDT MON JUL 24 2017

NOTE: "FAIR" INDICATES FEW OR NO CLOUDS BELOW 12,000 FEET WITH NO
SIGNIFICANT WEATHER AND/OR OBSTRUCTIONS TO VISIBILITY.

* - THESE STATIONS ARE NOT NWS STATIONS...THUS NOT UNDER NWS
QUALITY CONTROL.  THEY ALSO DO NOT REPORT WEATHER SUCH
AS PRECIPITATION OR FOG.

IAZ001>003-012>014-020>022-031>034-043>046-242000-
   NORTHWEST IOWA

CITY           SKY/WX    TMP DP  RH WIND       PRES   REMARKS
CARROLL *      MOSUNNY   77  66  69 VRB5      30.02S
CHEROKEE *     MOSUNNY   80  62  55 S8        30.01F HX  81
DENISON *      SUNNY     79  63  57 VRB7G13   30.03F HX  80
ORANGE CITY *  SUNNY     79  61  53 SE8       30.00F HX  80
SHELDON *      MOSUNNY   79  63  57 S12       29.99F HX  80
SIOUX CITY     SUNNY     83  65  54 S9        29.98F HX  85
SPENCER        MOSUNNY   79  61  53 SE12      30.02F HX  80
STORM LAKE *     N/A     77  63  61 SE8       30.03F
$$

IAZ055>058-069>071-079>083-090>094-242000-
   SOUTHWEST IOWA

CITY           SKY/WX    TMP DP  RH WIND       PRES   REMARKS
ATLANTIC *     SUNNY     81  63  54 E8        30.01F HX  82
AUDUBON *      SUNNY     81  66  61 E7        30.03F HX  83
CLARINDA *     SUNNY     81  66  61 VRB3      30.03F HX  83
COUNCIL BLFS * SUNNY     81  66  61 VRB6      30.00F HX  83
CRESTON *      SUNNY     82  59  44 VRB3G12   30.03F HX  82
HARLAN  *      SUNNY     81  63  54 VRB7      30.05F HX  82
LAMONI         SUNNY     83  62  49 N6        30.02F HX  84
RED OAK *      SUNNY     81  64  57 SE6       30.01F HX  82
SHENANDOAH *   SUNNY     82  66  57 VRB5      30.01F HX  85
$$

IAZ047>049-059>061-072>074-084-242000-
   CENTRAL IOWA

CITY           SKY/WX    TMP DP  RH WIND       PRES   REMARKS
AMES           MOSUNNY   79  64  60 VRB5      30.02F HX  81
ANKENY *       SUNNY     77  63  61 VRB5      30.03F
BOONE *        MOSUNNY   77  61  57 CALM      30.02F
CHARITON *     SUNNY     81  57  44 S6        30.01F HX  81
DES MOINES     MOSUNNY   82  60  47 VRB5      30.01S HX  82
GRINNELL*      MOSUNNY   76  63  64 E6        30.05F
KNOXVILLE *    SUNNY     81  59  47 NE8       30.01S HX  81
MARSHALLTOWN   MOSUNNY   76  63  64 NE8       30.03F
NEWTON *       MOSUNNY   77  63  61 VRB6G16   30.03F
PELLA *        SUNNY     80  60  50 CALM      30.03S HX  81
$$

IAZ004>006-015-016-023>025-035-036-242000-
   NORTH CENTRAL IOWA

CITY           SKY/WX    TMP DP  RH WIND       PRES   REMARKS
ALGONA *       PTSUNNY   77  61  57 S7        30.04S
CLARION *      PTSUNNY   75  63  64 SE6G14    30.04S
ESTHERVILLE    PTSUNNY   75  62  64 SE7       30.03F
FORT DODGE *     N/A    N/A N/A N/A MISG        N/A
MASON CITY     PTSUNNY   73  61  65 SE8       30.06F
FOREST CITY *  PTSUNNY   73  61  64 E8        30.05F
WEBSTER CITY * MOSUNNY   79  63  57 E10       30.01F HX  80
IOWA FALLS *   PTSUNNY   76  62  63 E5        30.05F
$$

IAZ007>011-017>019-026>030-037>042-050>054-066-242000-
   NORTHEAST IOWA

CITY           SKY/WX    TMP DP  RH WIND       PRES   REMARKS
CEDAR RAPIDS   PTSUNNY   76  64  66 E6        30.04S
CHARLES CITY * CLOUDY    73  63  68 E6G13     30.06F
DECORAH *      PTSUNNY   68  59  73 CALM      30.08S
DUBUQUE        CLOUDY    71  60  68 E5        30.07S
MONTICELLO *   CLOUDY    73  63  68 NE6       30.06R
OELWEIN *        N/A    N/A N/A N/A MISG        N/A
WATERLOO       PTSUNNY   76  63  64 NE8       30.03F
$$

IAZ064-065-067-068-078-242000-
   EAST CENTRAL IOWA

CITY           SKY/WX    TMP DP  RH WIND       PRES   REMARKS
DAVENPORT      CLOUDY    72  63  73 E5        30.07S
IOWA CITY      PTSUNNY   79  65  62 NE10      30.05S HX  81
MUSCATINE *    MOSUNNY   77  66  69 N10       30.03S
QUAD CITIES    CLOUDY    74  64  71 NE7       30.04S
$$

IAZ062-063-075>077-085>089-095>099-242000-
   SOUTHEAST IOWA

CITY           SKY/WX    TMP DP  RH WIND       PRES   REMARKS
BURLINGTON     MOSUNNY   79  68  69 E10       30.02S HX  81
FAIRFIELD *    MOSUNNY   81  63  54 NE7G14    30.01F HX  82
FORT MADISON * MOSUNNY   79  66  65 NE6       30.02F HX  81
KEOKUK *       SUNNY     81  64  57 E8G15     30.00F HX  82
OSKALOOSA *      N/A     81  60  49 E8        30.02F HX  81
OTTUMWA        MOSUNNY   82  59  45 NE7       30.02S HX  82
WASHINGTON *   MOSUNNY   79  66  65 NE9       30.04S HX  81
$$

ABBREVIATIONS USED IN REMARKS
   TC - TEMPERATURES IN CELSIUS
  WCI - WIND CHILL INDEX
   HX - HEAT INDEX
  VSB - VISIBILITY
$$





USA.gov is the U.S. government's official web portal to all federal, state and local government web resources and services.